Weather in Zhuravlevskoye

Russia / Tyumen Oblast     56°16′12″N   67°41′10″E
temp.,
°C
wind,
m/s
gust,
m/s
humid.,
%
clouds,
%
prec.,
mm/h
press.,
hPa
HPBL,
m
7 march, sun
sun723:00−11sw6139222 0.0 1010307
02:00−12wsw599590 0.0 1011189
05:00−16wsw449671 0.0 101261
08:00−16wsw339393 0.0 101345
11:00−11ssw238596 0.0 1014235
14:00−9se3593100 0.0 1012328
17:00−8ese5895100 0.9 1007451
20:00−8e61295100 2.3 1002589
8 march, mon
mon823:00−9ne51095100 5.6 998428
02:00−10nnw71293100 2.2 998483
05:00−12nw7149299 2.3 1002440
08:00−15wnw61295100 0.0 1006318
11:00−13w6109081 0.0 1009454
14:00−11wsw688771 0.0 1010698
17:00−11sw598886 0.0 1011526
20:00−12ssw61293100 0.1 1011620
9 march, tue
tue923:00−10ssw6139298 0.2 1010561
02:00−9ssw7149297 0.2 1009561
05:00−8ssw7149199 0.3 1009507
08:00−7ssw81492100 0.1 1009551
11:00−7ssw81393100 0.1 1009546
14:00−7ssw91590100 0.1 1007673
17:00−6sw91590100 0.3 1005814
20:00−6sw81690100 0.1 1005584
10 march, wed
wed1023:00−7sw61294100 0.1 1007343
02:00−10sw3397100 0.0 100755
05:00−10s2297100 0.1 100621
08:00−9se2296100 0.3 100598
11:00−6se3493100 1.2 1003354
14:00−5se2392100 0.6 1001464
17:00−5sse1295100 1.4 998257
20:00−6nnw1197100 0.9 99821
11 march, thu
thu1123:00−8nw71294100 1.8 998431
02:00−12nw71293100 0.5 999498
05:00−17wnw61292100 0.6 1003436
08:00−20wnw61295100 0.0 1006342
11:00−18w599191 0.0 1009433
14:00−15wsw688642 0.0 1010737
17:00−18wsw7118771 0.1 1011665
20:00−19wsw51394100 0.1 1013462